This demonstration page uses our WeatherBlox Daily Observations layout. Learn more.

Left ArrowRight Arrow

Hourly Observations for April 11, 2020

Temp ( °F °C ) Dew Point ( °F °C ) Humidity (%) Winds ( mph kmh ) Pressure ( in mb ) Visibility ( mi km ) Precip ( " mm )
12:53 am 00:53 Clear 60 15.6 51 10.6 72 72 Calm 29.99 1016 10 16 0.00 0.00
1:53 am 01:53 Clear 55 12.8 50 10 83 83 NNE 6 9 30.00 1016 10 16 0.00 0.00
2:53 am 02:53 Mostly Clear 56 13.3 50 10 81 81 NNE 3 6 29.99 1016 10 16 0.00 0.00
3:53 am 03:53 Clear 52 11.1 49 9.4 89 89 Calm 29.99 1016 10 16 0.00 0.00
4:53 am 04:53 Clear 50 10 48 8.9 93 93 Calm 29.98 1015 10 16 0.00 0.00
5:53 am 05:53 Clear 50 10 48 8.9 93 93 Calm 29.98 1015 10 16 0.00 0.00
6:53 am 06:53 Sunny 49 9.4 47 8.3 93 93 Calm 29.98 1015 10 16 0.00 0.00
7:53 am 07:53 Sunny 54 12.2 50 10 87 87 Calm 29.99 1016 10 16 0.00 0.00
8:53 am 08:53 Sunny 59 15 51 10.6 75 75 Calm 29.99 1016 10 16 0.00 0.00
9:53 am 09:53 Sunny 62 16.7 52 11.1 70 70 S 3 6 29.98 1015 10 16 0.00 0.00
10:53 am 10:53 Sunny 65 18.3 54 12.2 68 68 VRB 6 9 29.96 1015 10 16 0.00 0.00
11:53 am 11:53 Sunny 69 20.6 55 12.8 61 61 VRB 3 6 29.94 1014 10 16 0.00 0.00
12:53 pm 12:53 Sunny 73 22.8 55 12.8 53 53 VRB 3 6 29.91 1013 10 16 0.00 0.00
1:53 pm 13:53 Sunny 74 23.3 55 12.8 52 52 VRB 7 11 29.89 1012 10 16 0.00 0.00
2:53 pm 14:53 Sunny 75 23.9 55 12.8 50 50 S 9 15 29.87 1012 10 16 0.00 0.00
3:53 pm 15:53 Sunny 76 24.4 55 12.8 48 48 S 10 17 29.85 1011 10 16 0.00 0.00
4:53 pm 16:53 Sunny 75 23.9 55 12.8 50 50 S 13 20 29.84 1011 10 16 0.00 0.00
5:53 pm 17:53 Sunny 73 22.8 54 12.2 51 51 S 15 24 29.84 1011 10 16 0.00 0.00
6:53 pm 18:53 Cloudy 72 22.2 53 11.7 52 52 S 14 22 29.85 1011 10 16 0.00 0.00
7:53 pm 19:53 Partly Cloudy 68 20 55 12.8 63 63 SSE 14 22 29.88 1012 10 16 0.00 0.00
8:53 pm 20:53 Partly Cloudy 66 18.9 53 11.7 63 63 S 9 15 29.91 1013 10 16 0.00 0.00
9:53 pm 21:53 Cloudy 66 18.9 53 11.7 63 63 SSW 7 11 29.93 1014 10 16 0.00 0.00
10:53 pm 22:53 Cloudy 65 18.3 53 11.7 66 66 SW 8 13 29.94 1014 10 16 0.00 0.00
11:53 pm 23:53 Cloudy 64 17.8 53 11.7 68 68 SW 7 11 29.96 1014 10 16 0.00 0.00

Powered by AerisWeather